[[{"header":{"parameterUnit":"m.s-1","parameterCategory":1,"la1":30.2991,"la2":30.254,"lo1":-89.0895,"lo2":-89.0444,"dy":0.0017,"dx":0.0017,"nx":28,"ny":28,"refTime":"2025-07-07T09:00:00:Z","depth":0,"parameterNumber":2,"parameterNumberName":"U-component_of_WINDS"},"data":[0,0,0,0,0,0,0,0,0,0,0,0,0,0,0,0,0,0,0,0,0,0,0,0,0,0,0,0,0,0,0,0,0,0,0,0,0,0,0,0,0,0,0,0,0,0,0,0,0,0,0,0,0,0,0,0,0,0,3.3408,3.3409,0,3.3495,3.3496,3.3497,3.3419,3.3416,3.3412,3.3409,3.3501,3.3506,3.3511,0,0,0,0,0,0,0,0,0,0,0,0,0,3.3172,3.3176,3.3408,3.3409,3.341,3.3495,3.3496,3.3497,3.3419,3.3415,3.3411,3.3408,3.3499,3.3505,3.3512,0,0,0,0,0,0,0,0,0,0,0,0,0,3.3268,3.3178,3.3408,3.3381,3.338,3.3495,3.3496,3.3498,3.342,3.3415,3.341,3.3406,3.3497,3.3505,3.3513,3.3659,0,0,3.3537,3.3541,0,0,0,0,0,0,0,0,3.3263,3.3277,3.3384,3.3383,3.3382,3.3441,3.3446,3.3552,3.3421,3.3405,3.3409,3.3404,3.3485,3.3494,3.3521,3.3663,3.3667,3.3538,3.3543,3.3546,3.3549,0,0,0,0,0,0,0,3.3256,3.3273,3.3442,3.3386,3.3384,3.3364,3.3373,3.3466,3.3471,3.3406,3.34,3.3412,3.3483,3.3513,3.3522,3.3668,3.3538,3.3545,3.355,3.3553,3.393,3.3935,0,0,0,0,0,0,3.3252,3.3268,3.344,3.3445,3.3309,3.3373,3.3382,3.3427,3.3469,3.3471,3.3416,3.3408,3.3501,3.3513,3.3525,3.3696,3.3546,3.3554,3.3559,3.3925,3.3931,3.3937,0,0,0,0,0,0,3.3248,3.3268,3.3436,3.3355,3.3375,3.3382,3.3433,3.3431,3.3461,3.3477,3.3477,3.3445,3.3498,3.3514,3.3625,3.3698,3.3558,3.3565,3.3919,3.3927,3.3934,3.4041,0,0,0,0,0,0,3.3241,3.3267,3.3324,3.3357,3.3379,3.3535,3.3437,3.3436,3.3475,3.3465,3.3505,3.3507,3.3495,3.3613,3.3633,3.3707,3.3571,3.3913,3.3923,3.3932,3.4031,3.4052,3.4069,0,0,0,0,0,3.3233,3.3352,3.3327,3.3348,3.345,3.354,3.3553,3.3537,3.3481,3.3537,3.3546,3.3505,3.3687,3.3625,3.3647,3.3724,3.3908,3.392,3.3931,3.4023,3.4048,3.4069,0,0,0,0,0,0,3.3329,3.3356,3.3329,3.3461,3.3499,3.3526,3.3597,3.3565,3.3619,3.3608,3.3586,3.3596,3.3713,3.373,3.366,3.3866,3.3788,3.3805,3.3851,3.3874,3.3893,3.3886,3.3578,0,0,0,0,0,3.3365,3.3436,3.3455,3.3571,3.359,3.3591,3.3629,3.3613,3.3651,3.3667,3.3685,3.3724,3.3789,3.3833,3.3894,3.4033,3.4039,3.4097,3.4116,3.4131,3.4145,3.4217,3.4242,3.3975,3.3975,3.3975,0,0,3.3441,3.3464,3.3511,3.359,3.3617,3.369,3.3605,3.3686,3.374,3.368,3.3785,3.3799,3.3841,3.3966,3.4022,3.3983,3.422,3.4146,3.4158,3.4164,3.4231,3.4256,3.4279,3.3983,3.3982,3.398,0,0,3.3616,3.3642,3.3739,3.3767,3.3808,3.3807,3.383,3.3862,3.3869,3.3974,3.3929,3.3992,3.4106,3.4136,3.4167,3.4349,3.4312,3.437,3.4469,3.4539,3.456,3.4578,3.4641,3.4664,3.4384,3.4385,3.4385,0,3.3706,3.3814,3.3794,3.3877,3.3912,3.3859,3.3956,3.3985,3.4045,3.4069,3.4025,3.4164,3.4189,3.4318,3.4362,3.439,3.4414,3.4365,3.4558,3.4577,3.4594,3.4653,3.4677,3.4391,3.439,3.439,3.4389,0,3.3921,3.3996,3.4069,3.4126,3.4169,3.426,3.4252,3.4298,3.4277,3.428,3.4386,3.4413,3.4477,3.4506,3.4489,3.4633,3.4607,3.4561,3.4483,3.4626,3.4681,3.4704,3.44,3.4398,3.4396,3.4394,0,0,3.4161,3.4202,3.423,3.4253,3.4293,3.435,3.4437,3.4498,3.4537,3.4579,3.465,3.4745,3.4702,3.4736,3.472,3.4782,3.4921,3.4728,3.4728,3.4761,3.5078,3.5111,3.5138,3.4896,3.4901,3.4904,3.5074,0,3.4336,3.4486,3.4468,3.4611,3.4679,3.4627,3.4702,3.4734,3.4738,3.4796,3.48,3.4867,3.4806,3.4826,3.4884,3.4892,3.4984,3.4879,3.4961,3.4964,3.4951,3.5168,3.5204,3.5363,3.5096,3.5099,3.5102,0,3.4562,3.4609,3.4758,3.4784,3.4811,3.4879,3.4932,3.4988,3.5022,3.502,3.5057,3.5029,3.5114,3.5034,3.5149,3.5078,3.511,3.5119,3.5124,3.5131,3.5041,3.5178,3.5414,3.5437,3.5136,3.5134,3.5131,0,3.4719,3.4821,3.4922,3.4944,3.4977,3.5025,3.5041,3.507,3.5107,3.5153,3.5176,3.5232,3.5262,3.5305,3.5293,3.5236,3.541,3.533,3.541,3.5411,3.5449,3.5447,3.5692,3.5472,3.5472,3.5471,3.5471,0,3.4916,3.5009,3.4992,3.5055,3.5156,3.5134,3.5234,3.5244,3.527,3.5332,3.5292,3.5351,3.5331,3.5389,3.538,3.5475,3.549,3.549,3.5486,3.5493,3.5493,3.5513,3.5501,3.5478,3.5476,3.5475,3.5474,0,3.511,3.5103,3.5209,3.523,3.5238,3.5311,3.5329,3.5387,3.5386,3.5465,3.5482,3.5482,3.5547,3.5539,3.5613,3.5606,3.5724,3.5708,3.5713,3.5708,3.5788,3.578,3.6054,3.6088,3.5848,3.585,3.5852,0,3.5235,3.5305,3.5333,3.5371,3.5389,3.5452,3.5488,3.5468,3.5507,3.5549,3.5601,3.5662,3.571,3.5817,3.5823,3.5878,3.5862,3.5954,3.587,3.5874,3.5861,3.5857,3.5862,3.5971,3.5973,3.5975,3.5977,0,3.5459,3.545,3.5504,3.5556,3.5599,3.564,3.5676,3.5709,3.5691,3.5737,3.5803,3.584,3.5913,3.5974,3.6025,3.6041,3.6006,3.6003,3.6024,3.6032,3.6031,3.603,3.5756,3.5997,3.5995,3.5994,3.5993,3.5992,3.5621,3.5679,3.5706,3.5766,3.579,3.5824,3.5878,3.5883,3.5937,3.5994,3.5978,3.6052,3.6081,3.6145,3.6166,3.6223,3.6189,3.622,3.6228,3.6236,3.6244,3.6022,3.6232,3.6232,3.6231,3.6231,3.623,0,3.584,3.5854,3.5909,3.5959,3.6006,3.5967,3.6004,3.6045,3.611,3.614,3.6186,3.626,3.6318,3.6327,3.6381,3.6425,3.641,3.6439,3.6436,3.6439,3.6272,3.6248,3.645,3.645,3.645,3.645,3.645,3.645,3.5959,3.6054,3.6049,3.6155,3.6168,3.6239,3.6263,3.6293,3.6315,3.6399,3.6446,3.6451,3.6471,3.6526,3.6577,3.6578,3.6599,3.6635,3.6629,3.6473,3.6451,3.643,3.6407,3.664,3.664,3.6791,3.6793,3.6794]},{"header":{"parameterUnit":"m.s-1","parameterCategory":1,"la1":30.2991,"la2":30.254,"lo1":-89.0895,"lo2":-89.0444,"dy":0.0017,"dx":0.0017,"nx":28,"ny":28,"refTime":"2025-07-07T09:00:00:Z","depth":0,"parameterNumber":3,"parameterNumberName":"V-component_of_WINDS"},"data":[0,0,0,0,0,0,0,0,0,0,0,0,0,0,0,0,0,0,0,0,0,0,0,0,0,0,0,0,0,0,0,0,0,0,0,0,0,0,0,0,0,0,0,0,0,0,0,0,0,0,0,0,0,0,0,0,0,0,4.3239,4.3239,0,4.3289,4.3289,4.329,4.3245,4.3243,4.3241,4.3239,4.3287,4.329,4.3293,0,0,0,0,0,0,0,0,0,0,0,0,0,4.3098,4.3101,4.3239,4.3239,4.324,4.3289,4.3289,4.329,4.3245,4.3243,4.3241,4.3239,4.3286,4.329,4.3293,0,0,0,0,0,0,0,0,0,0,0,0,0,4.3155,4.3102,4.3238,4.3223,4.3223,4.3289,4.3289,4.329,4.3246,4.3243,4.324,4.3238,4.3285,4.3289,4.3294,4.3376,0,0,4.3307,4.3309,0,0,0,0,0,0,0,0,4.3152,4.316,4.3225,4.3225,4.3224,4.3258,4.3257,4.3319,4.3246,4.3237,4.3239,4.3236,4.3279,4.3284,4.3299,4.3378,4.338,4.3308,4.331,4.3312,4.3314,0,0,0,0,0,0,0,4.3148,4.3157,4.3258,4.3226,4.3225,4.3212,4.3217,4.3269,4.3273,4.3237,4.3234,4.3241,4.3278,4.3295,4.33,4.3381,4.3308,4.3311,4.3314,4.3316,4.3526,4.3529,0,0,0,0,0,0,4.3146,4.3155,4.3257,4.326,4.318,4.3217,4.3223,4.325,4.3272,4.3273,4.3243,4.3239,4.3289,4.3295,4.3302,4.3397,4.3312,4.3316,4.3319,4.3523,4.3527,4.353,0,0,0,0,0,0,4.3143,4.3156,4.3255,4.3206,4.3218,4.3222,4.3253,4.3252,4.3269,4.3277,4.3276,4.326,4.3287,4.3295,4.3357,4.3398,4.3318,4.3322,4.352,4.3525,4.3529,4.359,0,0,0,0,0,0,4.3139,4.3155,4.3188,4.3208,4.3221,4.3311,4.3256,4.3255,4.3277,4.3272,4.3292,4.3293,4.3285,4.3351,4.3362,4.3403,4.3326,4.3516,4.3522,4.3527,4.3584,4.3596,4.3606,0,0,0,0,0,4.3135,4.3203,4.319,4.3202,4.3262,4.3314,4.3321,4.3312,4.3281,4.3312,4.3317,4.3292,4.3392,4.3358,4.337,4.3412,4.3514,4.352,4.3527,4.358,4.3594,4.3606,0,0,0,0,0,0,4.3187,4.3205,4.3191,4.3268,4.329,4.3306,4.3346,4.3328,4.3359,4.3352,4.3338,4.3343,4.3408,4.3417,4.3378,4.3492,4.3448,4.3457,4.3484,4.3497,4.3508,4.3503,4.333,0,0,0,0,0,4.3208,4.325,4.3263,4.333,4.3342,4.3342,4.3364,4.3356,4.3377,4.3386,4.3395,4.3416,4.3451,4.3475,4.3508,4.3586,4.3588,4.3621,4.3632,4.3641,4.3648,4.3686,4.37,4.3552,4.3552,4.3552,0,0,4.3251,4.3266,4.3293,4.3341,4.3357,4.3398,4.335,4.3397,4.3427,4.3392,4.3451,4.3459,4.348,4.355,4.3581,4.3559,4.369,4.3649,4.3656,4.3659,4.3695,4.3709,4.3721,4.3556,4.3555,4.3555,0,0,4.335,4.3367,4.3423,4.344,4.3464,4.3464,4.3477,4.3496,4.35,4.3559,4.3533,4.3568,4.3631,4.3646,4.3663,4.3765,4.3743,4.3777,4.3832,4.387,4.3882,4.3892,4.3926,4.3938,4.3785,4.3785,4.3785,0,4.34,4.3463,4.3454,4.3502,4.3522,4.3493,4.3548,4.3565,4.3599,4.3612,4.3588,4.3664,4.3677,4.3748,4.3773,4.3788,4.3801,4.3774,4.3881,4.3891,4.3901,4.3933,4.3946,4.3789,4.3788,4.3788,4.3787,0,4.3521,4.3565,4.3607,4.3641,4.3666,4.3718,4.3714,4.374,4.3729,4.3731,4.3789,4.3804,4.3838,4.3855,4.3845,4.3924,4.3909,4.3883,4.3838,4.3919,4.3948,4.3961,4.3794,4.3793,4.3791,4.3791,0,0,4.3655,4.3682,4.3697,4.3711,4.3735,4.3768,4.3817,4.3852,4.3873,4.3897,4.3936,4.3989,4.3964,4.3983,4.3974,4.4007,4.4084,4.3976,4.3977,4.3994,4.4169,4.4186,4.4201,4.407,4.4072,4.4074,4.4166,0,4.3752,4.3838,4.3831,4.3911,4.395,4.3922,4.3965,4.3983,4.3985,4.4017,4.4019,4.4056,4.4023,4.4033,4.4065,4.4068,4.4118,4.4061,4.4103,4.4105,4.4096,4.4217,4.4236,4.4322,4.4178,4.418,4.4181,0,4.3878,4.3906,4.3991,4.4007,4.4023,4.4061,4.4091,4.4122,4.4142,4.4141,4.4161,4.4145,4.4192,4.4148,4.421,4.4171,4.4188,4.4192,4.4195,4.4196,4.4146,4.4219,4.435,4.4362,4.42,4.4199,4.4197,0,4.3963,4.4023,4.408,4.4093,4.4114,4.4141,4.4151,4.4167,4.4188,4.4213,4.4226,4.4257,4.4273,4.4296,4.4288,4.4257,4.4351,4.4307,4.435,4.435,4.4369,4.4367,4.4501,4.4384,4.4384,4.4384,4.4384,0,4.4071,4.4124,4.4118,4.4153,4.421,4.42,4.4255,4.4261,4.4276,4.431,4.4289,4.4321,4.431,4.4341,4.4336,4.4386,4.4395,4.4393,4.4391,4.4394,4.4394,4.4403,4.4396,4.4387,4.4386,4.4386,4.4385,0,4.4175,4.4175,4.4235,4.4249,4.4254,4.4295,4.4306,4.4338,4.4339,4.4382,4.4392,4.4392,4.4427,4.4422,4.4462,4.4458,4.452,4.4512,4.4514,4.4511,4.4553,4.4548,4.4695,4.4713,4.4587,4.4588,4.4589,0,4.4244,4.4283,4.4301,4.4323,4.4335,4.437,4.4391,4.4381,4.4403,4.4427,4.4455,4.4489,4.4515,4.4572,4.4575,4.4604,4.4594,4.4644,4.4598,4.4599,4.4591,4.4588,4.4591,4.4652,4.4654,4.4655,4.4656,0,4.4363,4.436,4.4392,4.4422,4.4447,4.447,4.4491,4.451,4.4502,4.4528,4.4564,4.4584,4.4624,4.4656,4.4683,4.4691,4.4671,4.467,4.4681,4.4684,4.4682,4.468,4.4535,4.4667,4.4665,4.4665,4.4664,4.4664,4.445,4.4482,4.4499,4.4534,4.4549,4.4568,4.4598,4.4602,4.4632,4.4664,4.4657,4.4697,4.4712,4.4747,4.4758,4.4788,4.4769,4.4786,4.4789,4.4793,4.4796,4.468,4.4793,4.4793,4.4792,4.4792,4.4792,0,4.4565,4.4575,4.4607,4.4637,4.4663,4.4644,4.4665,4.4688,4.4724,4.4741,4.4767,4.4807,4.4838,4.4843,4.4872,4.4894,4.4886,4.4902,4.4899,4.49,4.4813,4.4799,4.4908,4.4908,4.4908,4.4908,4.4908,4.4908,4.4629,4.4682,4.4681,4.474,4.4749,4.4788,4.4801,4.4818,4.4832,4.4877,4.4903,4.4906,4.4918,4.4947,4.4974,4.4974,4.4985,4.5004,4.5,4.4918,4.4907,4.4896,4.4882,4.5007,4.5007,4.5085,4.5085,4.5086]}]]